Location: Burgerwiesen
(48.6500°N, 15.6167°E)
Time: 17:45:01
(UTC+00:00)

USA 234 - Pass Details

Date: 09 April 2020
Orbit: 1102 x 1106 km, 123.0° (Epoch: 14 May)

Event Time Altitude Azimuth Distance (km) Brightness Sun altitude
Rises 19:49:46 0° 56° (NE) 3,926 6.0 -19.9°
Reaches altitude 10° 19:52:23 10° 62° (ENE) 2,966 5.3 -20.2°
Maximum altitude 19:58:38 46° 134° (SE) 1,448 3.4 -21.0°
Drops below altitude 10° 20:04:51 10° 207° (SSW) 2,955 5.4 -21.7°
Sets 20:07:27 0° 213° (SSW) 3,911 6.1 -22.0°
